This is the latest recevied weather packets stored in our database for station/object WD7CGF. If no packets are shown the sender has not sent any weather packets the latest 10 day(s).
| Time | Temp. | Humidity | Pressure | Rain* | Wind** | Luminosity | Snow |
|---|---|---|---|---|---|---|---|
| 1787435914 | 27.22° C | 45% | 1011.8 hPa | 0 mm | - | - | - |
| 1787435327 | 27.22° C | 44% | 1011.8 hPa | 0 mm | - | - | - |
| 1787434718 | 27.78° C | 49% | 1011.8 hPa | 0 mm | - | - | - |
| 1787434116 | 27.22° C | 52% | 1011.9 hPa | 0 mm | - | - | - |
| 1787433528 | 26.67° C | 53% | 1011.9 hPa | 0 mm | - | - | - |
| 1787432922 | 26.67° C | 55% | 1011.9 hPa | 0 mm | - | - | - |
| 1787432313 | 26.67° C | 55% | 1012 hPa | 0 mm | - | - | - |
| 1787431726 | 25.56° C | 59% | 1012 hPa | 0 mm | - | - | - |
| 1787431120 | 25° C | 58% | 1012.1 hPa | 0 mm | - | - | - |
| 1787430514 | 25° C | 58% | 1012.1 hPa | 0 mm | - | - | - |
| 1787429926 | 25° C | 58% | 1012.1 hPa | 0 mm | - | - | - |
| 1787429324 | 25° C | 59% | 1011.8 hPa | 0 mm | - | - | - |
| 1787428717 | 25.56° C | 59% | 1011.8 hPa | 0 mm | - | - | - |
| 1787428131 | 25.56° C | 58% | 1011.8 hPa | 0 mm | - | - | - |
| 1787427522 | 25.56° C | 58% | 1011.9 hPa | 0 mm | - | - | - |
| 1787426913 | 26.11° C | 59% | 1012 hPa | 0 mm | - | - | - |
| 1787426326 | 26.11° C | 59% | 1012 hPa | 0 mm | - | - | - |
| 1787425719 | 26.11° C | 59% | 1012 hPa | 0 mm | - | - | - |
| 1787425112 | 26.11° C | 58% | 1012.3 hPa | 0 mm | - | - | - |
| 1787424530 | 26.11° C | 57% | 1012.3 hPa | 0 mm | - | - | - |
| 1787423926 | 26.67° C | 55% | 1011.9 hPa | 0 mm | - | - | - |
| 1787423320 | 27.22° C | 56% | 1012.2 hPa | 0 mm | - | - | - |
| 1787422713 | 26.67° C | 57% | 1012.2 hPa | 0 mm | - | - | - |
| 1787422126 | 26.11° C | 59% | 1012.5 hPa | 0 mm | - | - | - |
| 1787421524 | 24.44° C | 64% | 1013.1 hPa | 0 mm | - | - | - |
* Rain latest hour (hover to see other rain measurements)
** Current wind speed in m/s (hover to see current wind gust speed)